Location: Newark
(45.5000°N, 11.4167°E)
Time: 18:38:32
(UTC+00:00)

A-11 Canister half - Pass Details

Date: 25 August 2019
Orbit: 1514 x 1686 km, 47.2° (Epoch: 16 October)

Event Time Altitude Azimuth Distance (km) Brightness Sun altitude
Rises 18:58:10 0° 268° (W) 4,701 12.8 -9.4°
Reaches altitude 10° 19:01:11 10° 270° (W) 3,737 12.1 -9.9°
Maximum altitude 19:10:43 81° 358° (N) 1,615 9.2 -11.4°
Drops below altitude 10° 19:20:39 10° 87° (E) 3,875 10.6 -12.9°
Enters shadow 19:21:16 - 87° (E) 4,070 10.7 -13.0°
Sets 19:23:50 0° 88° (E) 4,882 - -13.4°
